Terminal Aerodrome Forecast
Issued by NWS Binghamton, NY

Home | Current Version | Previous Version | Text Only | Print | Product List | Glossary On
Versions: 1 2 3 4 5 6 7 8 9 10 11 12 13 14 15 16 17 18 19 20 21 22
000
FTUS41 KBGM 301737
TAFBGM
TAF
KBGM 301737Z 3018/3118 19006KT P6SM SCT035 BKN110
      TEMPO 3020/3024 4SM TSRA BR BKN040CB
     FM310000 20008KT P6SM OVC100
     FM310600 25008KT 3SM -RA BR OVC025
     FM310900 30008KT 1 1/2SM -RA BR OVC003
     FM311500 36006KT 3SM -RA BR OVC009=

USA.gov is the U.S. government's official web portal to all federal, state and local government web resources and services.